| time (UTC) | temp F | wind direction | speed MPH | gust MPH | rain 1hr in | rain 24hr in | rain mn in | humidity % | barometer mb |
| 20260906203046 | 63 | 286 | 8.0 | 12.0 | 0.00 | 0.15 | 0.15 | 70 | 1015.4 |
| 20260906202046 | 63 | 274 | 8.0 | 11.0 | 0.00 | 0.15 | 0.15 | 71 | 1015.4 |
| 20260906201046 | 62 | 273 | 9.0 | 11.0 | 0.00 | 0.15 | 0.15 | 75 | 1015.3 |
| 20260906200048 | 62 | 280 | 7.0 | 10.0 | 0.00 | 0.15 | 0.15 | 76 | 1015.4 |
| 20260906195047 | 62 | 285 | 8.0 | 11.0 | 0.00 | 0.15 | 0.15 | 76 | 1015.4 |
| 20260906194048 | 63 | 270 | 9.0 | 11.0 | 0.00 | 0.15 | 0.15 | 75 | 1015.4 |
| 20260906193048 | 63 | 280 | 8.0 | 12.0 | 0.00 | 0.15 | 0.15 | 77 | 1015.4 |
| 20260906192047 | 62 | 288 | 8.0 | 10.0 | 0.00 | 0.15 | 0.15 | 78 | 1015.6 |
| 20260906191047 | 61 | 292 | 6.0 | 9.0 | 0.00 | 0.15 | 0.15 | 83 | 1015.7 |
| 20260906190108 | 60 | 296 | 7.0 | 11.0 | 0.00 | 0.15 | 0.15 | 83 | 1015.7 |
| 20260906185047 | 60 | 289 | 7.0 | 9.0 | 0.00 | 0.15 | 0.15 | 84 | 1015.8 |
| 20260906184047 | 60 | 286 | 7.0 | 10.0 | 0.00 | 0.15 | 0.15 | 84 | 1015.8 |
| 20260906183048 | 60 | 291 | 6.0 | 11.0 | 0.00 | 0.15 | 0.15 | 83 | 1015.8 |
| 20260906182108 | 59 | 261 | 6.0 | 8.0 | 0.00 | 0.15 | 0.15 | 86 | 1015.7 |
| 20260906181049 | 58 | 284 | 5.0 | 7.0 | 0.00 | 0.15 | 0.15 | 90 | 1015.8 |
| 20260906180048 | 57 | 0.0 | 0.0 | 0.00 | 0.15 | 0.15 | 92 | 1015.9 | |
| 20260906175048 | 55 | 254 | 5.0 | 9.0 | 0.00 | 0.15 | 0.15 | 92 | 1015.7 |
| 20260906174050 | 55 | 257 | 3.0 | 5.0 | 0.00 | 0.15 | 0.15 | 92 | 1015.6 |
| 20260906173048 | 55 | 278 | 3.0 | 4.0 | 0.00 | 0.15 | 0.15 | 92 | 1015.6 |
| 20260906172110 | 55 | 264 | 2.0 | 3.0 | 0.00 | 0.15 | 0.15 | 92 | 1015.6 |
| 20260906171049 | 55 | 273 | 1.0 | 3.0 | 0.00 | 0.15 | 0.15 | 92 | 1015.7 |
| 20260906170048 | 55 | 248 | 2.0 | 3.0 | 0.00 | 0.15 | 0.15 | 91 | 1015.8 |
| 20260906165049 | 55 | 220 | 2.0 | 3.0 | 0.01 | 0.15 | 0.15 | 91 | 1015.7 |
| 20260906164049 | 54 | 203 | 0.0 | 1.0 | 0.03 | 0.15 | 0.15 | 91 | 1015.9 |
| 20260906163050 | 54 | 225 | 0.0 | 1.0 | 0.07 | 0.15 | 0.15 | 91 | 1015.9 |
| 20260906162050 | 54 | 0.0 | 0.0 | 0.09 | 0.15 | 0.15 | 91 | 1015.9 | |
| 20260906161049 | 54 | 293 | 0.0 | 2.0 | 0.11 | 0.15 | 0.15 | 91 | 1015.9 |
| 20260906160050 | 54 | 0.0 | 0.0 | 0.13 | 0.15 | 0.15 | 91 | 1016.1 | |
| 20260906155049 | 54 | 0.0 | 0.0 | 0.13 | 0.14 | 0.14 | 91 | 1016.2 | |
| 20260906154049 | 53 | 0.0 | 0.0 | 0.11 | 0.12 | 0.12 | 90 | 1016.2 | |
| 20260906153131 | 53 | 104 | 0.0 | 1.0 | 0.08 | 0.09 | 0.09 | 90 | 1016.2 |
| 20260906152050 | 53 | 0.0 | 0.0 | 0.06 | 0.06 | 0.06 | 90 | 1016.1 | |
| 20260906151050 | 53 | 224 | 0.0 | 2.0 | 0.04 | 0.04 | 0.04 | 90 | 1016.0 |
| 20260906150050 | 53 | 0.0 | 0.0 | 0.02 | 0.03 | 0.03 | 90 | 1015.9 | |
| 20260906145111 | 53 | 114 | 0.0 | 2.0 | 0.01 | 0.01 | 0.01 | 89 | 1015.7 |
| 20260906144050 | 53 | 1 | 1.0 | 2.0 | 0.01 | 0.01 | 0.01 | 89 | 1015.5 |
| 20260906143050 | 53 | 180 | 0.0 | 1.0 | 0.00 | 0.00 | 0.00 | 89 | 1015.4 |
| 20260906142050 | 53 | 0.0 | 0.0 | 0.00 | 0.00 | 0.00 | 89 | 1015.3 | |
| 20260906141110 | 53 | 0.0 | 0.0 | 0.00 | 0.00 | 0.00 | 89 | 1015.2 | |
| 20260906140051 | 53 | 315 | 0.0 | 2.0 | 0.00 | 0.00 | 0.00 | 89 | 1015.1 |
| 20260906135051 | 53 | 203 | 0.0 | 1.0 | 0.00 | 0.00 | 0.00 | 89 | 1015.0 |
| 20260906134051 | 53 | 0.0 | 0.0 | 0.00 | 0.00 | 0.00 | 89 | 1014.8 | |
| 20260906133113 | 52 | 0.0 | 0.0 | 0.00 | 0.00 | 0.00 | 89 | 1014.8 | |
| 20260906132051 | 52 | 232 | 1.0 | 2.0 | 0.00 | 0.00 | 0.00 | 89 | 1014.6 |
| 20260906131113 | 52 | 248 | 0.0 | 1.0 | 0.00 | 0.00 | 0.00 | 90 | 1014.7 |
| 20260906130111 | 52 | 0.0 | 0.0 | 0.00 | 0.00 | 0.00 | 90 | 1014.8 | |
| 20260906125052 | 52 | 0.0 | 0.0 | 0.00 | 0.00 | 0.00 | 90 | 1014.9 | |
| 20260906124052 | 52 | 0.0 | 0.0 | 0.00 | 0.00 | 0.00 | 90 | 1014.8 | |
| 20260906123051 | 52 | 0.0 | 0.0 | 0.00 | 0.00 | 0.00 | 90 | 1015.0 | |
| 20260906122054 | 52 | 293 | 0.0 | 1.0 | 0.00 | 0.00 | 0.00 | 90 | 1015.1 |
| 20260906121052 | 52 | 270 | 0.0 | 2.0 | 0.00 | 0.00 | 0.00 | 90 | 1015.2 |
| 20260906120053 | 51 | 0.0 | 0.0 | 0.00 | 0.00 | 0.00 | 90 | 1015.3 | |
| 20260906115052 | 51 | 0.0 | 0.0 | 0.00 | 0.00 | 0.00 | 90 | 1015.3 | |
| 20260906114052 | 51 | 270 | 0.0 | 1.0 | 0.00 | 0.00 | 0.00 | 90 | 1015.3 |
| 20260906113052 | 51 | 309 | 0.0 | 1.0 | 0.00 | 0.00 | 0.00 | 90 | 1015.2 |
| 20260906112052 | 51 | 0.0 | 0.0 | 0.00 | 0.00 | 0.00 | 90 | 1015.3 | |
| 20260906111052 | 51 | 0.0 | 0.0 | 0.00 | 0.00 | 0.00 | 90 | 1015.0 | |
| 20260906110053 | 51 | 0.0 | 0.0 | 0.00 | 0.00 | 0.00 | 90 | 1015.1 | |
| 20260906105053 | 50 | 0.0 | 0.0 | 0.00 | 0.00 | 0.00 | 90 | 1015.2 | |
| 20260906104053 | 50 | 0.0 | 0.0 | 0.00 | 0.00 | 0.00 | 90 | 1015.2 | |
| 20260906103053 | 50 | 0.0 | 0.0 | 0.00 | 0.00 | 0.00 | 90 | 1015.1 | |
| 20260906102053 | 50 | 0.0 | 0.0 | 0.00 | 0.00 | 0.00 | 89 | 1015.1 | |
| 20260906101053 | 50 | 286 | 0.0 | 3.0 | 0.00 | 0.00 | 0.00 | 89 | 1015.1 |
| 20260906100054 | 50 | 0.0 | 0.0 | 0.00 | 0.00 | 0.00 | 89 | 1014.9 | |
| 20260906095053 | 50 | 0.0 | 0.0 | 0.00 | 0.00 | 0.00 | 89 | 1015.0 | |
| 20260906094055 | 50 | 0.0 | 0.0 | 0.00 | 0.00 | 0.00 | 89 | 1015.1 | |
| 20260906093054 | 50 | 0.0 | 0.0 | 0.00 | 0.00 | 0.00 | 89 | 1015.2 | |
| 20260906092055 | 50 | 0.0 | 0.0 | 0.00 | 0.00 | 0.00 | 89 | 1015.4 | |
| 20260906091054 | 49 | 0.0 | 0.0 | 0.00 | 0.01 | 0.00 | 88 | 1015.4 | |
| 20260906090055 | 49 | 188 | 0.0 | 2.0 | 0.00 | 0.03 | 0.00 | 88 | 1015.4 |
| 20260906085136 | 48 | 180 | 0.0 | 2.0 | 0.00 | 0.05 | 0.00 | 87 | 1015.4 |
| 20260906084056 | 48 | 0.0 | 0.0 | 0.00 | 0.05 | 0.00 | 87 | 1015.5 | |
| 20260906083054 | 48 | 0.0 | 0.0 | 0.00 | 0.05 | 0.00 | 87 | 1015.4 | |
| 20260906082114 | 49 | 0.0 | 0.0 | 0.00 | 0.05 | 0.00 | 86 | 1015.6 | |
| 20260906081056 | 49 | 0.0 | 0.0 | 0.00 | 0.05 | 0.00 | 86 | 1015.5 | |
| 20260906080055 | 49 | 0.0 | 0.0 | 0.00 | 0.05 | 0.00 | 85 | 1015.5 | |
| 20260906075115 | 50 | 0.0 | 0.0 | 0.00 | 0.05 | 0.00 | 85 | 1015.6 | |
| 20260906074055 | 50 | 158 | 0.0 | 2.0 | 0.00 | 0.05 | 0.00 | 85 | 1015.6 |
| 20260906073055 | 50 | 0.0 | 0.0 | 0.00 | 0.05 | 0.00 | 84 | 1015.6 | |
| 20260906072057 | 51 | 0.0 | 0.0 | 0.00 | 0.05 | 0.00 | 84 | 1015.6 | |
| 20260906071117 | 51 | 0.0 | 0.0 | 0.00 | 0.05 | 0.00 | 83 | 1015.7 | |
| 20260906070058 | 52 | 0.0 | 0.0 | 0.00 | 0.05 | 0.00 | 83 | 1015.7 | |
| 20260906065055 | 52 | 0.0 | 0.0 | 0.00 | 0.05 | 0.05 | 82 | 1015.7 | |
| 20260906064055 | 53 | 0.0 | 0.0 | 0.00 | 0.05 | 0.05 | 82 | 1015.7 | |
| 20260906063057 | 54 | 0.0 | 0.0 | 0.00 | 0.05 | 0.05 | 81 | 1015.7 | |
| 20260906062056 | 54 | 301 | 1.0 | 2.0 | 0.00 | 0.05 | 0.05 | 81 | 1015.7 |
| 20260906061056 | 54 | 234 | 1.0 | 2.0 | 0.00 | 0.05 | 0.05 | 81 | 1015.7 |
| 20260906060056 | 54 | 186 | 1.0 | 3.0 | 0.00 | 0.05 | 0.05 | 80 | 1015.8 |
| 20260906055056 | 54 | 143 | 1.0 | 2.0 | 0.00 | 0.05 | 0.05 | 79 | 1015.9 |
| 20260906054056 | 55 | 0 | 0.0 | 2.0 | 0.00 | 0.05 | 0.05 | 78 | 1015.9 |
| 20260906053057 | 55 | 0.0 | 0.0 | 0.00 | 0.05 | 0.05 | 78 | 1015.9 | |
| 20260906052058 | 55 | 0.0 | 0.0 | 0.00 | 0.05 | 0.05 | 77 | 1016.0 | |
| 20260906051056 | 55 | 0.0 | 0.0 | 0.00 | 0.05 | 0.05 | 76 | 1016.1 | |
| 20260906050057 | 56 | 0.0 | 0.0 | 0.00 | 0.05 | 0.05 | 75 | 1016.0 | |
| 20260906045058 | 56 | 0.0 | 0.0 | 0.00 | 0.05 | 0.05 | 74 | 1016.1 | |
| 20260906044058 | 57 | 0.0 | 0.0 | 0.00 | 0.05 | 0.05 | 73 | 1016.2 | |
| 20260906043057 | 57 | 270 | 0.0 | 2.0 | 0.00 | 0.05 | 0.05 | 72 | 1016.2 |
| 20260906042057 | 58 | 267 | 0.0 | 1.0 | 0.00 | 0.05 | 0.05 | 70 | 1016.1 |
| 20260906041057 | 59 | 225 | 0.0 | 2.0 | 0.00 | 0.05 | 0.05 | 68 | 1016.1 |
| 20260906040059 | 60 | 199 | 1.0 | 3.0 | 0.00 | 0.05 | 0.05 | 67 | 1016.1 |
| 20260906035119 | 61 | 180 | 2.0 | 2.0 | 0.00 | 0.05 | 0.05 | 65 | 1015.9 |
| 20260906034058 | 62 | 195 | 1.0 | 2.0 | 0.00 | 0.05 | 0.05 | 64 | 1015.8 |
| 20260906033058 | 62 | 197 | 1.0 | 2.0 | 0.00 | 0.05 | 0.05 | 64 | 1015.8 |
| 20260906032058 | 62 | 184 | 1.0 | 2.0 | 0.00 | 0.05 | 0.05 | 64 | 1015.7 |
| 20260906031058 | 62 | 179 | 3.0 | 4.0 | 0.00 | 0.05 | 0.05 | 63 | 1015.6 |
| 20260906030100 | 63 | 182 | 2.0 | 3.0 | 0.00 | 0.05 | 0.05 | 62 | 1015.6 |
| 20260906025058 | 64 | 194 | 2.0 | 4.0 | 0.00 | 0.05 | 0.05 | 61 | 1015.5 |
| 20260906024058 | 65 | 227 | 2.0 | 3.0 | 0.00 | 0.05 | 0.05 | 60 | 1015.4 |
| 20260906023058 | 67 | 201 | 2.0 | 3.0 | 0.00 | 0.05 | 0.05 | 57 | 1015.5 |
| 20260906022140 | 69 | 220 | 1.0 | 3.0 | 0.00 | 0.05 | 0.05 | 54 | 1015.5 |
| 20260906021059 | 71 | 250 | 2.0 | 4.0 | 0.00 | 0.05 | 0.05 | 52 | 1015.5 |
| 20260906020059 | 71 | 245 | 2.0 | 3.0 | 0.00 | 0.05 | 0.05 | 52 | 1015.6 |
| 20260906015059 | 72 | 271 | 4.0 | 6.0 | 0.00 | 0.05 | 0.05 | 50 | 1015.7 |
| 20260906014059 | 72 | 283 | 3.0 | 4.0 | 0.00 | 0.05 | 0.05 | 49 | 1015.6 |
| 20260906013119 | 72 | 293 | 3.0 | 5.0 | 0.00 | 0.05 | 0.05 | 49 | 1015.5 |
| 20260906012059 | 73 | 286 | 4.0 | 5.0 | 0.00 | 0.05 | 0.05 | 48 | 1015.5 |
| 20260906011059 | 73 | 274 | 4.0 | 7.0 | 0.00 | 0.05 | 0.05 | 48 | 1015.5 |
| 20260906010100 | 73 | 285 | 4.0 | 5.0 | 0.00 | 0.05 | 0.05 | 48 | 1015.4 |
| 20260906005100 | 74 | 279 | 5.0 | 8.0 | 0.00 | 0.05 | 0.05 | 48 | 1015.4 |
| 20260906004100 | 74 | 288 | 6.0 | 8.0 | 0.00 | 0.05 | 0.05 | 47 | 1015.5 |
| 20260906003100 | 74 | 278 | 5.0 | 7.0 | 0.00 | 0.05 | 0.05 | 47 | 1015.5 |
| 20260906002100 | 75 | 301 | 4.0 | 5.0 | 0.00 | 0.05 | 0.05 | 45 | 1015.5 |
| 20260906001102 | 75 | 291 | 5.0 | 6.0 | 0.00 | 0.05 | 0.05 | 47 | 1015.6 |
| 20260906000120 | 75 | 291 | 3.0 | 5.0 | 0.00 | 0.05 | 0.05 | 46 | 1015.6 |
| 20260905235120 | 75 | 287 | 3.0 | 4.0 | 0.00 | 0.05 | 0.05 | 46 | 1015.6 |
| 20260905234100 | 74 | 287 | 4.0 | 6.0 | 0.00 | 0.05 | 0.05 | 47 | 1015.7 |
| 20260905233102 | 73 | 284 | 5.0 | 7.0 | 0.00 | 0.05 | 0.05 | 51 | 1015.7 |
| 20260905232102 | 72 | 284 | 6.0 | 9.0 | 0.00 | 0.05 | 0.05 | 51 | 1015.9 |
| 20260905231121 | 72 | 266 | 5.0 | 9.0 | 0.00 | 0.05 | 0.05 | 52 | 1015.9 |
| 20260905225103 | 72 | 276 | 5.0 | 7.0 | 0.00 | 0.05 | 0.05 | 51 | 1016.0 |
| 20260905224102 | 71 | 290 | 7.0 | 10.0 | 0.00 | 0.05 | 0.05 | 52 | 1016.0 |
| 20260905223101 | 71 | 280 | 6.0 | 9.0 | 0.00 | 0.05 | 0.05 | 52 | 1016.1 |
| 20260905222101 | 71 | 316 | 5.0 | 8.0 | 0.00 | 0.05 | 0.05 | 53 | 1016.1 |
| 20260905221104 | 71 | 305 | 6.0 | 9.0 | 0.00 | 0.05 | 0.05 | 53 | 1016.2 |
| 20260905215102 | 69 | 274 | 5.0 | 9.0 | 0.00 | 0.05 | 0.05 | 57 | 1016.5 |
| 20260905214103 | 69 | 255 | 5.0 | 8.0 | 0.00 | 0.05 | 0.05 | 57 | 1016.6 |
| 20260905213102 | 68 | 0.0 | 0.0 | 0.00 | 0.05 | 0.05 | 58 | 1016.7 | |
| 20260905212104 | 67 | 274 | 6.0 | 10.0 | 0.00 | 0.05 | 0.05 | 59 | 1016.7 |
| 20260905211104 | 68 | 296 | 7.0 | 10.0 | 0.00 | 0.05 | 0.05 | 58 | 1016.8 |
| 20260905205103 | 68 | 289 | 7.0 | 10.0 | 0.00 | 0.05 | 0.05 | 57 | 1016.9 |
| 20260905204103 | 68 | 267 | 7.0 | 11.0 | 0.00 | 0.05 | 0.05 | 59 | 1016.9 |